Location: Arrodets-la-Barthe
(43.0306°N, 0.2829°E)
Time: 06:49:11
(UTC+00:00)

Cosmos 2278 - Pass Details

Date: 06 June 2022
Orbit: 838 x 854 km, 71.1° (Epoch: 03 July)

Event Time Altitude Azimuth Distance (km) Brightness Sun altitude
Rises 20:43:21 0° 253° (WSW) 3,395 7.2 -10.5°
Reaches altitude 10° 20:46:39 10° 272° (W) 2,467 6.8 -10.9°
Maximum altitude 20:50:22 18° 313° (NW) 1,992 6.9 -11.4°
Drops below altitude 10° 20:54:06 10° 355° (N) 2,482 7.0 -11.9°
Sets 20:57:27 0° 14° (NNE) 3,425 7.4 -12.3°
